"startDT [UTC]","vpos","CH4 [ppm]","stdev(CH4) [ppm]","CO2 [ppm]","stdev(CO2) [ppm]","H2O_reported [%]","stdev(H2O_reported)","CavityPressure [torr]","CavityTemp [C]","OutletValve","CH4_dry [ppm]","CO2_dry [ppm]","DasTemp [C]","EtalonTemp [C]","WarmBoxTemp [C]","MPVPosition","T_ECpre [C]","T_EC1 [C]","T_EC2 [C]","p_inlet [hPa]","p_in [hPa]","p_out [hPa]","T_inlet [C]","RH_inlet [%]","dwpt_inlet [C]","T_vent [C]","RH_vent [%]","dwpt_vent [C]","flow_vent [l min-1]","flow_inlet [l min-1]","dwpt_sample [C]","T_room [C]"
2015-03-19 00:00:00,0.0,1.92499,0.00030,404.167,0.034,0.3687,0.0018,140.002,45.000,34043.88118,1.93203,405.979,32.378,45.068,45.000,0.00,0.09,-272.71,-272.77,-4,978,-2,21.9,10.2,-10.9,21.5,10.5,-10.8,5.73,1.91,-11.6,25.9
2015-03-19 00:01:00,0.0,1.92508,0.00030,404.180,0.032,0.3625,0.0028,140.000,44.999,34046.11810,1.93204,405.959,32.373,45.068,45.000,0.00,0.09,-272.71,-272.77,-4,978,-2,21.8,10.0,-11.1,21.5,10.4,-10.9,5.73,1.91,-11.6,25.8
2015-03-19 00:02:00,0.0,1.92517,0.00033,404.219,0.037,0.3556,0.0022,140.001,45.000,34045.29091,1.93195,405.965,32.364,45.068,44.999,0.00,0.09,-272.71,-272.76,-4,979,-3,21.8,9.8,-11.3,21.5,10.2,-11.2,5.73,1.91,-11.6,25.8
2015-03-19 00:03:00,0.0,1.92520,0.00040,404.246,0.026,0.3524,0.0012,140.003,44.999,34045.65582,1.93196,405.977,32.320,45.068,44.999,0.00,0.09,-272.71,-272.76,-4,979,-3,21.8,9.8,-11.5,21.5,10.1,-11.3,5.73,1.91,-11.5,25.8
2015-03-19 00:04:00,0.0,1.92495,0.00033,404.232,0.023,0.3515,0.0013,140.001,45.000,34044.73628,1.93168,405.959,32.312,45.068,45.000,0.00,0.09,-272.71,-272.77,-4,979,-3,21.8,9.7,-11.5,21.5,10.0,-11.4,5.73,1.91,-11.6,25.8
2015-03-19 00:05:00,0.0,1.92515,0.00038,404.247,0.031,0.3502,0.0019,140.000,44.999,34042.42851,1.93183,405.965,32.276,45.068,45.000,0.00,0.09,-272.71,-272.77,-4,979,-2,21.8,9.7,-11.6,21.5,10.0,-11.4,5.73,1.91,-11.5,25.8
2015-03-19 00:06:00,0.0,1.92516,0.00032,404.277,0.034,0.3486,0.0018,140.001,45.000,34043.66964,1.93183,405.989,32.250,45.068,45.000,0.00,0.09,-272.70,-272.76,-4,979,-2,21.8,9.6,-11.6,21.5,9.9,-11.5,5.73,1.90,-11.6,25.8
2015-03-19 00:07:00,0.0,1.92538,0.00034,404.280,0.023,0.3473,0.0015,139.999,45.000,34041.01384,1.93203,405.984,32.239,45.068,45.000,0.00,0.09,-272.71,-272.76,-4,979,-2,21.8,9.6,-11.6,21.5,9.9,-11.5,5.73,1.90,-11.5,25.7
2015-03-19 00:08:00,0.0,1.92523,0.00026,404.269,0.040,0.3483,0.0043,139.998,45.000,34042.91660,1.93191,405.979,32.201,45.068,45.000,0.00,0.09,-272.71,-272.77,-4,979,-2,21.8,9.6,-11.6,21.5,9.9,-11.5,5.73,1.91,-11.6,25.7
2015-03-19 00:09:00,0.0,1.92513,0.00041,404.239,0.033,0.3521,0.0064,140.000,45.000,34044.25412,1.93185,405.968,32.186,45.068,45.000,0.00,0.09,-272.70,-272.76,-3,979,-2,21.8,9.7,-11.5,21.5,10.0,-11.4,5.73,1.90,-11.6,25.7
2015-03-19 00:10:00,0.0,1.92538,0.00030,404.280,0.029,0.3435,0.0018,139.999,45.000,34043.39185,1.93196,405.966,32.183,45.068,45.000,0.00,0.09,-272.70,-272.77,-4,979,-2,21.8,9.5,-11.7,21.5,9.8,-11.6,5.73,1.91,-11.5,25.7
2015-03-19 00:11:00,0.0,1.92547,0.00037,404.273,0.039,0.3425,0.0018,140.001,45.000,34044.03238,1.93200,405.955,32.149,45.068,45.000,0.00,0.09,-272.72,-272.77,-4,979,-2,21.8,9.5,-11.8,21.5,9.8,-11.7,5.73,1.90,-11.5,25.8
2015-03-19 00:12:00,0.0,1.92532,0.00036,404.292,0.035,0.3408,0.0013,140.002,45.000,34045.32725,1.93185,405.967,32.136,45.068,45.000,0.00,0.09,-272.71,-272.77,-4,980,-2,21.8,9.5,-11.9,21.5,9.7,-11.8,5.73,1.90,-11.5,25.7
2015-03-19 00:13:00,0.0,1.92510,0.00030,404.269,0.029,0.3402,0.0027,140.004,45.000,34049.19533,1.93162,405.938,32.142,45.068,45.000,0.00,0.09,-272.70,-272.76,-4,979,-2,21.8,9.4,-11.9,21.5,9.7,-11.8,5.73,1.91,-11.5,25.8
2015-03-19 00:14:00,0.0,1.92537,0.00040,404.316,0.031,0.3347,0.0015,140.003,45.000,34047.47070,1.93174,405.958,32.126,45.068,45.000,0.00,0.09,-272.72,-272.77,-4,980,-2,21.8,9.3,-12.1,21.5,9.6,-11.9,5.73,1.91,-11.5,25.7
2015-03-19 00:15:00,0.0,1.92553,0.00039,404.329,0.029,0.3300,0.0017,140.001,44.999,34045.82462,1.93189,405.949,32.125,45.068,45.000,0.00,0.09,-272.71,-272.77,-4,980,-2,21.8,9.2,-12.3,21.5,9.5,-12.1,5.73,1.92,-11.5,25.7
2015-03-19 00:16:00,0.0,1.92554,0.00029,404.338,0.034,0.3250,0.0024,140.000,45.000,34047.50775,1.93175,405.934,32.123,45.068,45.000,0.00,0.09,-272.71,-272.76,-4,980,-2,21.8,9.0,-12.4,21.5,9.3,-12.3,5.73,1.92,-11.5,25.8
2015-03-19 00:17:00,0.0,1.92561,0.00037,404.351,0.040,0.3223,0.0015,139.998,45.000,34047.53954,1.93176,405.933,32.115,45.068,45.000,0.00,0.09,-272.71,-272.77,-4,980,-2,21.8,9.0,-12.5,21.5,9.3,-12.4,5.73,1.93,-11.5,25.7
2015-03-19 00:18:00,0.0,1.92532,0.00041,404.354,0.037,0.3207,0.0018,139.999,45.000,34049.28829,1.93146,405.926,32.098,45.068,45.000,0.00,0.09,-272.71,-272.77,-4,980,-2,21.8,8.9,-12.6,21.5,9.2,-12.4,5.73,1.92,-11.5,25.7
2015-03-19 00:19:00,0.0,1.92568,0.00045,404.379,0.027,0.3195,0.0015,139.997,45.000,34046.76590,1.93181,405.946,32.084,45.068,45.000,0.00,0.09,-272.71,-272.77,-4,980,-2,21.8,8.9,-12.7,21.5,9.2,-12.5,5.73,1.92,-11.5,25.7
2015-03-19 00:20:00,0.0,1.92554,0.00029,404.398,0.032,0.3180,0.0014,140.000,45.000,34047.08620,1.93160,405.958,32.078,45.068,45.000,0.00,0.09,-272.70,-272.76,-4,979,-2,21.8,8.8,-12.7,21.5,9.1,-12.6,5.73,1.92,-11.5,25.8
2015-03-19 00:21:00,0.0,1.92550,0.00041,404.384,0.029,0.3162,0.0020,139.998,45.000,34048.71025,1.93155,405.937,32.080,45.068,45.000,0.00,0.09,-272.72,-272.77,-4,980,-2,21.8,8.8,-12.7,21.5,9.1,-12.6,5.73,1.92,-11.5,25.8
2015-03-19 00:22:00,0.0,1.92544,0.00034,404.396,0.020,0.3136,0.0017,140.002,45.000,34049.52397,1.93144,405.934,32.117,45.068,45.000,0.00,0.09,-272.71,-272.77,-4,980,-2,21.8,8.7,-12.8,21.5,9.0,-12.7,5.73,1.92,-11.6,25.9
2015-03-19 00:23:00,0.0,1.92585,0.00044,404.398,0.029,0.3116,0.0019,140.001,45.000,34046.68397,1.93176,405.927,32.123,45.068,45.000,0.00,0.09,-272.71,-272.76,-4,980,-2,21.8,8.7,-12.9,21.5,9.0,-12.8,5.73,1.92,-11.6,25.8
2015-03-19 00:24:00,0.0,1.92578,0.00028,404.425,0.039,0.3103,0.0021,140.003,45.000,34046.41402,1.93173,405.947,32.123,45.068,45.000,0.00,0.09,-272.71,-272.77,-4,979,-2,21.8,8.7,-13.0,21.5,8.9,-12.8,5.73,1.92,-11.6,25.8
2015-03-19 00:25:00,0.0,1.92587,0.00025,404.426,0.038,0.3081,0.0020,140.003,45.000,34047.27529,1.93176,405.937,32.121,45.068,45.000,0.00,0.09,-272.71,-272.77,-4,980,-2,21.8,8.6,-13.0,21.5,8.9,-12.9,5.73,1.92,-11.6,25.7
2015-03-19 00:26:00,0.0,1.92599,0.00028,404.420,0.025,0.3075,0.0021,139.997,45.000,34045.59454,1.93185,405.928,32.089,45.068,45.000,0.00,0.09,-272.71,-272.77,-4,980,-2,21.8,8.6,-13.0,21.5,8.8,-12.9,5.73,1.91,-11.6,25.7
2015-03-19 00:27:00,0.0,1.92584,0.00034,404.430,0.032,0.3083,0.0014,139.998,45.000,34046.35480,1.93175,405.941,32.092,45.068,45.000,0.00,0.09,-272.71,-272.76,-4,980,-2,21.8,8.6,-13.1,21.5,8.9,-12.9,5.73,1.92,-11.5,25.7
2015-03-19 00:28:00,0.0,1.92594,0.00030,404.438,0.034,0.3095,0.0018,139.998,45.000,34044.71078,1.93185,405.955,32.112,45.068,45.000,0.00,0.09,-272.72,-272.77,-4,980,-2,21.8,8.6,-13.0,21.5,8.9,-12.9,5.73,1.92,-11.6,25.7
2015-03-19 00:29:00,0.0,1.92583,0.00047,404.405,0.025,0.3119,0.0014,139.998,45.000,34045.15790,1.93178,405.934,32.110,45.068,45.000,0.00,0.09,-272.72,-272.77,-4,979,-2,21.8,8.7,-12.9,21.5,8.9,-12.8,5.73,1.91,-11.6,25.7
2015-03-19 00:30:00,0.0,1.92581,0.00039,404.396,0.028,0.3137,0.0012,139.998,45.000,34046.27938,1.93179,405.937,32.098,45.068,45.000,0.00,0.09,-272.70,-272.76,-4,979,-2,21.8,8.8,-12.8,21.5,9.0,-12.7,5.73,1.91,-11.5,25.7
2015-03-19 00:31:00,0.0,1.92554,0.00039,404.392,0.039,0.3156,0.0017,140.000,45.000,34049.36309,1.93161,405.939,32.079,45.068,45.000,0.00,0.09,-272.71,-272.77,-4,980,-2,21.8,8.8,-12.8,21.5,9.0,-12.7,5.73,1.91,-11.6,25.7
2015-03-19 00:32:00,0.0,1.92583,0.00037,404.401,0.039,0.3179,0.0022,139.999,45.000,34046.54233,1.93188,405.958,32.064,45.068,45.000,0.00,0.09,-272.72,-272.77,-3,980,-2,21.8,8.9,-12.7,21.5,9.1,-12.6,5.73,1.90,-11.6,25.8
2015-03-19 00:33:00,0.0,1.92567,0.00026,404.407,0.033,0.3188,0.0021,140.000,45.000,34045.61984,1.93177,405.973,32.071,45.069,45.000,0.00,0.09,-272.70,-272.77,-4,980,-2,21.8,8.9,-12.7,21.5,9.1,-12.5,5.73,1.90,-11.6,25.8
2015-03-19 00:34:00,0.0,1.92553,0.00036,404.367,0.032,0.3205,0.0015,139.999,45.000,34046.60023,1.93166,405.939,32.064,45.069,45.000,0.00,0.09,-272.71,-272.76,-4,980,-2,21.8,8.9,-12.6,21.5,9.2,-12.5,5.73,1.90,-11.6,25.7
2015-03-19 00:35:00,0.0,1.92548,0.00042,404.367,0.042,0.3218,0.0020,140.001,45.000,34045.41796,1.93164,405.947,32.064,45.069,45.000,0.00,0.09,-272.71,-272.77,-4,980,-2,21.8,9.0,-12.6,21.5,9.2,-12.4,5.73,1.90,-11.6,25.7
2015-03-19 00:36:00,0.0,1.92521,0.00035,404.329,0.031,0.3254,0.0021,139.998,45.000,34045.92949,1.93144,405.926,32.067,45.068,45.000,0.00,0.09,-272.71,-272.77,-4,980,-2,21.7,9.0,-12.5,21.5,9.3,-12.4,5.73,1.90,-11.6,25.7
2015-03-19 00:37:00,0.0,1.92527,0.00036,404.315,0.033,0.3273,0.0019,139.995,45.000,34045.60402,1.93152,405.918,32.084,45.068,45.000,0.00,0.09,-272.71,-272.77,-4,980,-2,21.7,9.1,-12.3,21.5,9.4,-12.3,5.73,1.90,-11.5,25.7
2015-03-19 00:38:00,0.0,1.92514,0.00030,404.304,0.031,0.3290,0.0019,139.999,45.000,34047.90771,1.93142,405.919,32.066,45.068,45.000,0.00,0.09,-272.71,-272.77,-4,980,-2,21.8,9.2,-12.2,21.5,9.4,-12.1,5.73,1.90,-11.6,25.7
2015-03-19 00:39:00,0.0,1.92506,0.00030,404.318,0.029,0.3325,0.0013,139.997,45.000,34047.02704,1.93143,405.950,32.075,45.068,45.000,0.00,0.09,-272.72,-272.77,-4,979,-2,21.7,9.3,-12.2,21.5,9.5,-12.1,5.73,1.91,-11.5,25.6
2015-03-19 00:40:00,0.0,1.92518,0.00041,404.281,0.030,0.3344,0.0018,140.003,45.000,34048.84388,1.93157,405.922,32.075,45.068,45.000,0.00,0.09,-272.71,-272.76,-4,979,-2,21.7,9.3,-12.1,21.5,9.6,-12.0,5.73,1.90,-11.6,25.6
2015-03-19 00:41:00,0.0,1.92510,0.00048,404.316,0.030,0.3368,0.0017,140.000,45.000,34045.28037,1.93155,405.967,32.065,45.068,45.000,0.00,0.09,-272.71,-272.77,-3,980,-2,21.7,9.4,-12.0,21.5,9.6,-11.9,5.73,1.91,-11.5,25.7
2015-03-19 00:42:00,0.0,1.92510,0.00036,404.284,0.027,0.3375,0.0014,140.001,45.000,34045.06468,1.93152,405.942,32.063,45.068,45.000,0.00,0.09,-272.72,-272.77,-4,980,-2,21.7,9.4,-12.0,21.5,9.7,-11.9,5.73,1.91,-11.5,25.6
2015-03-19 00:43:00,0.0,1.92489,0.00028,404.280,0.029,0.3377,0.0017,139.998,45.000,34046.04369,1.93138,405.936,32.062,45.068,45.000,0.00,0.09,-272.70,-272.76,-3,979,-2,21.7,9.4,-12.0,21.5,9.7,-11.8,5.73,1.91,-11.5,25.7
2015-03-19 00:44:00,0.0,1.92518,0.00032,404.295,0.032,0.3372,0.0017,139.998,45.000,34044.74114,1.93160,405.951,32.063,45.068,45.000,0.00,0.09,-272.71,-272.76,-4,979,-2,21.7,9.4,-12.0,21.5,9.7,-11.9,5.73,1.92,-11.5,25.7
2015-03-19 00:45:00,0.0,1.92515,0.00035,404.315,0.031,0.3351,0.0021,140.000,45.000,34043.76193,1.93157,405.960,32.063,45.068,45.000,0.00,0.09,-272.71,-272.77,-4,979,-2,21.7,9.4,-12.0,21.5,9.6,-11.9,5.73,1.91,-11.5,25.7
2015-03-19 00:46:00,0.0,1.92512,0.00034,404.308,0.026,0.3342,0.0023,140.000,45.000,34043.02671,1.93153,405.947,32.064,45.068,45.000,0.00,0.09,-272.71,-272.77,-4,979,-2,21.7,9.3,-12.1,21.5,9.6,-12.0,5.73,1.92,-11.5,25.7
2015-03-19 00:47:00,0.0,1.92508,0.00024,404.324,0.021,0.3327,0.0021,140.001,45.000,34042.93711,1.93143,405.958,32.096,45.068,45.000,0.00,0.09,-272.70,-272.76,-4,979,-2,21.7,9.3,-12.2,21.5,9.5,-12.0,5.73,1.91,-11.5,25.7
2015-03-19 00:48:00,0.0,1.92532,0.00047,404.310,0.031,0.3306,0.0017,139.998,45.000,34041.10064,1.93162,405.933,32.104,45.068,45.000,0.00,0.09,-272.71,-272.77,-4,979,-2,21.7,9.2,-12.2,21.5,9.5,-12.1,5.73,1.92,-11.5,25.6
2015-03-19 00:49:00,0.0,1.92509,0.00022,404.294,0.032,0.3283,0.0014,139.998,45.000,34042.46781,1.93140,405.905,32.084,45.068,45.000,0.00,0.09,-272.72,-272.77,-4,979,-2,21.7,9.2,-12.3,21.5,9.4,-12.1,5.73,1.92,-11.5,25.6
2015-03-19 00:50:00,0.0,1.92507,0.00033,404.313,0.036,0.3273,0.0026,139.998,45.000,34042.63637,1.93134,405.918,32.066,45.068,45.000,0.00,0.09,-272.71,-272.77,-4,979,-2,21.7,9.1,-12.3,21.5,9.4,-12.2,5.73,1.92,-11.5,25.7
2015-03-19 00:51:00,0.0,1.92509,0.00034,404.321,0.029,0.3250,0.0023,139.999,45.000,34042.30828,1.93127,405.916,32.065,45.068,45.000,0.00,0.09,-272.71,-272.77,-4,980,-2,21.7,9.1,-12.4,21.5,9.4,-12.2,5.73,1.92,-11.5,25.7
2015-03-19 00:52:00,0.0,1.92533,0.00039,404.339,0.032,0.3237,0.0027,140.001,45.000,34042.76585,1.93154,405.927,32.064,45.069,45.000,0.00,0.09,-272.72,-272.77,-4,979,-2,21.7,9.0,-12.5,21.5,9.3,-12.3,5.73,1.92,-11.5,25.7
2015-03-19 00:53:00,0.0,1.92519,0.00022,404.366,0.030,0.3205,0.0018,139.998,45.000,34043.54969,1.93128,405.938,32.066,45.069,45.001,0.00,0.09,-272.71,-272.76,-4,979,-2,21.7,9.0,-12.6,21.5,9.2,-12.4,5.73,1.92,-11.5,25.7
2015-03-19 00:54:00,0.0,1.92531,0.00039,404.396,0.031,0.3182,0.0023,139.998,45.000,34042.39308,1.93139,405.956,32.070,45.069,45.000,0.00,0.09,-272.71,-272.76,-4,979,-2,21.7,8.9,-12.7,21.5,9.2,-12.5,5.73,1.92,-11.5,25.7
2015-03-19 00:55:00,0.0,1.92523,0.00037,404.378,0.026,0.3157,0.0019,139.999,45.000,34045.24502,1.93127,405.928,32.069,45.069,45.000,0.00,0.09,-272.72,-272.77,-3,979,-2,21.7,8.8,-12.8,21.5,9.1,-12.6,5.73,1.91,-11.5,25.7
2015-03-19 00:56:00,0.0,1.92521,0.00039,404.384,0.030,0.3141,0.0013,140.000,45.000,34045.84662,1.93122,405.926,32.066,45.069,45.000,0.00,0.09,-272.71,-272.77,-3,979,-2,21.7,8.8,-12.8,21.5,9.0,-12.7,5.73,1.91,-11.5,25.7
2015-03-19 00:57:00,0.0,1.92538,0.00041,404.423,0.028,0.3122,0.0019,139.999,45.000,34043.38111,1.93131,405.952,32.064,45.068,45.000,0.00,0.09,-272.71,-272.76,-4,979,-2,21.7,8.7,-12.9,21.5,9.0,-12.7,5.73,1.92,-11.5,25.7
2015-03-19 00:58:00,0.0,1.92549,0.00027,404.403,0.038,0.3123,0.0022,140.000,45.000,34043.09257,1.93150,405.936,32.065,45.068,45.000,0.00,0.09,-272.71,-272.76,-4,979,-2,21.7,8.7,-12.9,21.5,9.0,-12.8,5.73,1.91,-11.5,25.7
2015-03-19 00:59:00,0.0,1.92542,0.00033,404.406,0.025,0.3119,0.0015,139.998,45.000,34042.99483,1.93136,405.936,32.063,45.068,45.000,0.00,0.09,-272.71,-272.77,-4,979,-2,21.7,8.7,-12.9,21.5,9.0,-12.8,5.73,1.92,-11.5,25.7
2015-03-19 01:00:00,0.0,1.92549,0.00042,404.399,0.032,0.3123,0.0018,140.001,45.000,34043.61551,1.93146,405.930,32.064,45.068,45.000,0.00,0.09,-272.71,-272.77,-4,979,-2,21.8,8.7,-12.9,21.5,9.0,-12.8,5.73,1.92,-11.5,25.6
2015-03-19 01:01:00,0.0,1.92525,0.00037,404.408,0.024,0.3111,0.0020,139.998,45.000,34045.66564,1.93122,405.935,32.063,45.068,45.000,0.00,0.09,-272.71,-272.76,-4,980,-2,21.8,8.7,-12.9,21.5,9.0,-12.8,5.73,1.92,-11.5,25.7
2015-03-19 01:02:00,0.0,1.92524,0.00038,404.395,0.037,0.3100,0.0017,140.000,45.000,34047.29711,1.93115,405.914,32.063,45.068,45.000,0.00,0.09,-272.71,-272.77,-4,979,-2,21.7,8.7,-13.0,21.5,8.9,-12.8,5.73,1.92,-11.5,25.7
2015-03-19 01:03:00,0.0,1.92520,0.00036,404.383,0.032,0.3085,0.0023,140.001,45.000,34047.19700,1.93111,405.898,32.064,45.068,45.000,0.00,0.09,-272.71,-272.77,-4,979,-2,21.7,8.6,-13.1,21.5,8.9,-12.9,5.73,1.92,-11.5,25.7
2015-03-19 01:04:00,0.0,1.92548,0.00035,404.392,0.020,0.3082,0.0016,139.999,45.000,34047.12693,1.93135,405.904,32.072,45.068,45.000,0.00,0.09,-272.71,-272.76,-4,979,-2,21.7,8.6,-13.1,21.5,8.9,-12.9,5.73,1.91,-11.5,25.7
2015-03-19 01:05:00,0.0,1.92535,0.00023,404.408,0.025,0.3049,0.0024,139.999,45.000,34047.27190,1.93117,405.905,32.075,45.068,45.000,0.00,0.09,-272.71,-272.77,-4,980,-2,21.8,8.5,-13.1,21.5,8.8,-13.0,5.73,1.91,-11.5,25.7
2015-03-19 01:06:00,0.0,1.92543,0.00035,404.391,0.033,0.3034,0.0022,139.999,45.000,34047.70393,1.93121,405.878,32.100,45.068,45.000,0.00,0.09,-272.72,-272.77,-4,979,-2,21.7,8.5,-13.2,21.5,8.7,-13.1,5.73,1.91,-11.5,25.7
2015-03-19 01:07:00,0.0,1.92561,0.00041,404.436,0.035,0.3010,0.0018,140.000,45.000,34045.33298,1.93135,405.911,32.094,45.068,45.000,0.00,0.09,-272.71,-272.76,-4,979,-2,21.7,8.4,-13.4,21.5,8.7,-13.1,5.73,1.91,-11.5,25.7
2015-03-19 01:08:00,0.0,1.92584,0.00029,404.456,0.036,0.2976,0.0020,140.000,45.000,34045.09712,1.93150,405.915,32.117,45.068,45.000,0.00,0.09,-272.71,-272.76,-4,979,-2,21.8,8.3,-13.4,21.5,8.6,-13.3,5.73,1.91,-11.5,25.7
2015-03-19 01:09:00,0.0,1.92588,0.00045,404.479,0.029,0.2971,0.0016,140.003,45.000,34045.79227,1.93162,405.936,32.107,45.068,45.000,0.00,0.09,-272.72,-272.77,-3,979,-2,21.7,8.3,-13.5,21.5,8.6,-13.3,5.73,1.91,-11.5,25.7
2015-03-19 01:10:00,0.0,1.92559,0.00034,404.489,0.031,0.2952,0.0013,139.999,45.000,34046.75458,1.93119,405.936,32.100,45.068,45.000,0.00,0.09,-272.71,-272.77,-4,980,-2,21.7,8.3,-13.6,21.5,8.5,-13.4,5.73,1.91,-11.5,25.7
2015-03-19 01:11:00,0.0,1.92585,0.00026,404.495,0.025,0.2956,0.0022,140.001,45.000,34044.71514,1.93153,405.945,32.081,45.068,45.000,0.00,0.09,-272.70,-272.77,-4,979,-2,21.7,8.3,-13.6,21.5,8.5,-13.4,5.73,1.91,-11.5,25.7
2015-03-19 01:12:00,0.0,1.92560,0.00035,404.492,0.035,0.2953,0.0016,139.999,45.000,34045.43905,1.93122,405.939,32.089,45.068,45.000,0.00,0.09,-272.71,-272.76,-4,979,-2,21.7,8.3,-13.6,21.5,8.5,-13.4,5.73,1.91,-11.5,25.7
2015-03-19 01:13:00,0.0,1.92581,0.00029,404.517,0.040,0.2952,0.0020,139.998,45.000,34045.28581,1.93145,405.964,32.105,45.068,45.000,0.00,0.09,-272.71,-272.77,-4,979,-2,21.7,8.3,-13.5,21.5,8.5,-13.4,5.73,1.92,-11.5,25.7
2015-03-19 01:14:00,0.0,1.92583,0.00032,404.514,0.034,0.2943,0.0017,140.001,45.000,34043.99919,1.93142,405.958,32.105,45.068,45.000,0.00,0.09,-272.71,-272.76,-4,979,-2,21.8,8.3,-13.6,21.5,8.5,-13.4,5.73,1.91,-11.5,25.7
2015-03-19 01:15:00,0.0,1.92590,0.00027,404.518,0.031,0.2929,0.0021,140.001,45.000,34043.71235,1.93150,405.954,32.097,45.068,45.000,0.00,0.09,-272.70,-272.77,-4,980,-2,21.8,8.2,-13.6,21.5,8.5,-13.5,5.73,1.91,-11.5,25.7
2015-03-19 01:16:00,0.0,1.92607,0.00026,404.527,0.040,0.2913,0.0019,139.999,45.000,34044.21660,1.93163,405.956,32.114,45.068,45.000,0.00,0.09,-272.71,-272.77,-4,979,-2,21.8,8.2,-13.7,21.5,8.4,-13.5,5.73,1.91,-11.5,25.6
2015-03-19 01:17:00,0.0,1.92630,0.00035,404.542,0.033,0.2906,0.0020,140.003,45.000,34043.25039,1.93186,405.966,32.114,45.068,45.000,0.00,0.09,-272.71,-272.77,-4,980,-2,21.8,8.2,-13.7,21.5,8.4,-13.5,5.73,1.91,-11.5,25.7
2015-03-19 01:18:00,0.0,1.92603,0.00033,404.550,0.037,0.2912,0.0020,140.002,45.000,34043.81202,1.93160,405.979,32.108,45.068,45.000,0.00,0.09,-272.71,-272.77,-4,979,-2,21.8,8.2,-13.7,21.5,8.4,-13.5,5.73,1.91,-11.5,25.7
2015-03-19 01:19:00,0.0,1.92634,0.00031,404.553,0.036,0.2921,0.0019,139.997,45.000,34041.09210,1.93190,405.985,32.114,45.068,45.000,0.00,0.09,-272.72,-272.77,-4,979,-2,21.8,8.2,-13.7,21.5,8.4,-13.5,5.73,1.91,-11.5,25.7
2015-03-19 01:20:00,0.0,1.92613,0.00036,404.558,0.030,0.2923,0.0018,139.999,45.000,34044.84732,1.93172,405.992,32.120,45.068,45.000,0.00,0.09,-272.71,-272.77,-4,979,-2,21.8,8.2,-13.7,21.5,8.4,-13.5,5.73,1.91,-11.5,25.7
2015-03-19 01:21:00,0.0,1.92595,0.00037,404.573,0.030,0.2914,0.0014,140.000,45.000,34044.71036,1.93156,406.001,32.118,45.068,45.000,0.00,0.09,-272.71,-272.76,-4,979,-2,21.8,8.2,-13.7,21.5,8.4,-13.5,5.73,1.92,-11.5,25.7
2015-03-19 01:22:00,0.0,1.92623,0.00033,404.574,0.029,0.2921,0.0012,139.999,45.000,34043.46968,1.93177,406.006,32.123,45.069,45.000,0.00,0.09,-272.71,-272.77,-4,980,-2,21.8,8.2,-13.7,21.5,8.4,-13.5,5.73,1.91,-11.5,25.7
2015-03-19 01:23:00,0.0,1.92631,0.00039,404.565,0.035,0.2925,0.0018,140.002,45.000,34044.52230,1.93191,405.999,32.125,45.068,45.000,0.00,0.09,-272.71,-272.77,-4,979,-2,21.8,8.2,-13.7,21.5,8.4,-13.5,5.73,1.91,-11.5,25.7
2015-03-19 01:24:00,0.0,1.92619,0.00035,404.549,0.032,0.2929,0.0018,140.001,45.000,34046.08399,1.93178,405.986,32.124,45.068,45.000,0.00,0.09,-272.70,-272.76,-3,979,-2,21.8,8.2,-13.7,21.5,8.4,-13.5,5.73,1.91,-11.5,25.7
2015-03-19 01:25:00,0.0,1.92598,0.00033,404.558,0.021,0.2933,0.0020,139.998,45.000,34046.32255,1.93160,405.995,32.124,45.068,45.000,0.00,0.09,-272.71,-272.77,-4,979,-2,21.8,8.2,-13.6,21.5,8.5,-13.5,5.73,1.92,-11.5,25.7
2015-03-19 01:26:00,0.0,1.92605,0.00041,404.553,0.040,0.2926,0.0017,139.997,45.000,34046.50444,1.93163,405.989,32.125,45.068,45.000,0.00,0.09,-272.71,-272.77,-4,979,-2,21.8,8.2,-13.6,21.5,8.5,-13.5,5.73,1.91,-11.5,25.8
2015-03-19 01:27:00,0.0,1.92615,0.00038,404.581,0.030,0.2932,0.0017,140.002,45.000,34047.10470,1.93175,406.019,32.127,45.068,45.000,0.00,0.09,-272.71,-272.77,-4,979,-2,21.8,8.2,-13.6,21.5,8.5,-13.5,5.73,1.91,-11.4,25.8
2015-03-19 01:28:00,0.0,1.92631,0.00036,404.573,0.028,0.2938,0.0018,139.996,45.000,34045.48188,1.93193,406.014,32.140,45.068,45.000,0.00,0.09,-272.71,-272.77,-4,979,-2,21.8,8.2,-13.6,21.5,8.5,-13.5,5.73,1.91,-11.4,25.8
2015-03-19 01:29:00,0.0,1.92617,0.00036,404.582,0.025,0.2932,0.0012,139.999,45.000,34047.34113,1.93176,406.020,32.170,45.068,45.000,0.00,0.09,-272.71,-272.77,-4,980,-2,21.8,8.2,-13.6,21.5,8.5,-13.5,5.73,1.91,-11.4,25.8
2015-03-19 01:30:00,0.0,1.92620,0.00039,404.565,0.028,0.2919,0.0019,139.999,45.000,34047.37942,1.93179,405.997,32.173,45.068,45.000,0.00,0.09,-272.71,-272.77,-4,980,-2,21.8,8.2,-13.6,21.5,8.4,-13.5,5.73,1.91,-11.4,25.8
2015-03-19 01:31:00,0.0,1.92605,0.00036,404.585,0.027,0.2912,0.0016,140.000,45.000,34046.60278,1.93160,406.013,32.164,45.068,45.000,0.00,0.09,-272.71,-272.77,-4,979,-2,21.8,8.2,-13.7,21.5,8.4,-13.5,5.73,1.91,-11.4,25.7
2015-03-19 01:32:00,0.0,1.92625,0.00033,404.605,0.031,0.2915,0.0014,140.001,45.000,34044.91111,1.93181,406.033,32.138,45.068,45.000,0.00,0.09,-272.71,-272.77,-4,980,-2,21.8,8.2,-13.7,21.5,8.4,-13.6,5.73,1.92,-11.4,25.7
2015-03-19 01:33:00,0.0,1.92623,0.00032,404.593,0.046,0.2899,0.0011,139.998,45.000,34043.77005,1.93180,406.016,32.126,45.068,45.000,0.00,0.09,-272.71,-272.77,-4,979,-2,21.8,8.1,-13.7,21.5,8.4,-13.6,5.73,1.91,-11.4,25.8
2015-03-19 01:34:00,0.0,1.92643,0.00023,404.590,0.033,0.2897,0.0018,140.002,45.000,34045.26244,1.93196,406.011,32.125,45.068,45.000,0.00,0.09,-272.71,-272.76,-4,979,-2,21.8,8.1,-13.7,21.5,8.4,-13.6,5.73,1.91,-11.4,25.7
2015-03-19 01:35:00,0.0,1.92613,0.00045,404.589,0.029,0.2907,0.0013,140.001,45.000,34047.22038,1.93171,406.012,32.134,45.069,45.000,0.00,0.09,-272.71,-272.77,-4,979,-2,21.8,8.1,-13.8,21.5,8.3,-13.6,5.73,1.91,-11.4,25.8
2015-03-19 01:36:00,0.0,1.92629,0.00028,404.558,0.042,0.2892,0.0012,139.999,45.000,34046.22891,1.93180,405.978,32.164,45.068,45.000,0.00,0.09,-272.71,-272.77,-4,980,-2,21.8,8.1,-13.8,21.5,8.3,-13.6,5.73,1.91,-11.4,25.8
2015-03-19 01:37:00,0.0,1.92608,0.00033,404.557,0.025,0.2888,0.0017,140.001,45.000,34048.08605,1.93160,405.972,32.186,45.068,45.000,0.00,0.09,-272.71,-272.76,-4,980,-2,21.8,8.1,-13.8,21.5,8.3,-13.6,5.73,1.91,-11.4,25.8
2015-03-19 01:38:00,0.0,1.92617,0.00032,404.557,0.043,0.2889,0.0015,140.004,45.000,34047.06624,1.93167,405.972,32.186,45.068,45.000,0.00,0.09,-272.70,-272.76,-3,979,-2,21.8,8.1,-13.8,21.5,8.3,-13.7,5.73,1.91,-11.4,25.8
2015-03-19 01:39:00,0.0,1.92605,0.00038,404.560,0.029,0.2876,0.0022,139.997,45.000,34047.40239,1.93158,405.970,32.186,45.068,45.000,0.00,0.09,-272.71,-272.77,-4,979,-2,21.8,8.0,-13.9,21.5,8.3,-13.7,5.73,1.91,-11.4,25.8
2015-03-19 01:40:00,0.0,1.92625,0.00047,404.563,0.027,0.2876,0.0017,140.003,45.000,34049.23952,1.93171,405.974,32.186,45.068,45.000,0.00,0.09,-272.71,-272.77,-4,979,-2,21.8,8.0,-13.9,21.5,8.3,-13.7,5.73,1.90,-11.4,25.8
2015-03-19 01:41:00,0.0,1.92602,0.00024,404.562,0.023,0.2868,0.0017,140.000,45.000,34049.31619,1.93150,405.967,32.197,45.068,45.000,0.00,0.09,-272.70,-272.76,-4,979,-2,21.8,8.0,-13.9,21.5,8.3,-13.7,5.73,1.91,-11.4,25.8
2015-03-19 01:42:00,0.0,1.92596,0.00033,404.567,0.034,0.2874,0.0017,139.998,45.000,34047.04764,1.93144,405.979,32.239,45.068,45.000,0.00,0.09,-272.71,-272.77,-4,980,-2,21.8,8.0,-13.9,21.5,8.3,-13.7,5.73,1.91,-11.4,25.8
2015-03-19 01:43:00,0.0,1.92632,0.00033,404.546,0.029,0.2858,0.0017,140.000,45.000,34046.88244,1.93176,405.944,32.234,45.068,45.000,0.00,0.09,-272.71,-272.77,-4,980,-2,21.8,8.0,-13.9,21.5,8.3,-13.7,5.73,1.91,-11.4,25.8
2015-03-19 01:44:00,0.0,1.92604,0.00028,404.536,0.033,0.2868,0.0015,140.001,45.000,34048.83032,1.93154,405.943,32.248,45.068,45.000,0.00,0.09,-272.71,-272.77,-4,979,-2,21.8,8.0,-13.9,21.5,8.3,-13.7,5.73,1.91,-11.4,25.8
2015-03-19 01:45:00,0.0,1.92600,0.00032,404.554,0.026,0.2877,0.0017,140.001,45.000,34049.12847,1.93149,405.965,32.211,45.068,45.000,0.00,0.09,-272.71,-272.77,-4,979,-2,21.8,8.0,-13.8,21.5,8.3,-13.7,5.73,1.90,-11.4,25.8
2015-03-19 01:46:00,0.0,1.92592,0.00032,404.540,0.026,0.2884,0.0012,140.002,45.000,34051.05642,1.93142,405.954,32.216,45.068,45.000,0.00,0.09,-272.71,-272.77,-4,979,-2,21.8,8.1,-13.8,21.5,8.3,-13.7,5.73,1.91,-11.4,25.8